TimePDT,TemperatureF,Dew PointF,Humidity,Sea Level PressureIn,VisibilityMPH,Wind Direction,Wind SpeedMPH,Gust SpeedMPH,PrecipitationIn,Events,Conditions,WindDirDegrees,DateUTC
12:52 AM,57.0,35.1,44,29.99,10.0,WNW,13.8,19.6,N/A,,Mostly Cloudy,300,2012-06-10 07:52:00
1:52 AM,57.0,36.0,45,30.00,10.0,SW,8.1,-,N/A,,Overcast,220,2012-06-10 08:52:00
2:52 AM,57.9,35.1,42,29.99,10.0,WNW,9.2,21.9,N/A,,Overcast,300,2012-06-10 09:52:00
3:52 AM,55.9,37.0,49,30.01,10.0,West,8.1,-,N/A,,Overcast,260,2012-06-10 10:52:00
4:52 AM,55.9,37.9,51,30.03,10.0,West,5.8,-,N/A,,Overcast,260,2012-06-10 11:52:00
5:52 AM,55.9,37.0,49,30.04,10.0,WSW,4.6,-,N/A,,Mostly Cloudy,240,2012-06-10 12:52:00
6:52 AM,57.0,37.9,49,30.05,10.0,WSW,6.9,-,N/A,,Overcast,240,2012-06-10 13:52:00
7:52 AM,57.0,37.9,49,30.07,10.0,SSW,9.2,-,N/A,,Mostly Cloudy,210,2012-06-10 14:52:00
8:52 AM,63.0,37.9,40,30.07,10.0,SSW,6.9,-,N/A,,Scattered Clouds,210,2012-06-10 15:52:00
9:52 AM,64.9,37.0,36,30.07,10.0,WSW,8.1,-,N/A,,Clear,240,2012-06-10 16:52:00
10:52 AM,68.0,39.0,35,30.07,10.0,SSW,15.0,-,N/A,,Clear,210,2012-06-10 17:52:00
11:52 AM,69.1,39.9,35,30.07,10.0,South,11.5,-,N/A,,Clear,180,2012-06-10 18:52:00
12:52 PM,71.1,36.0,28,30.07,10.0,South,15.0,19.6,N/A,,Clear,180,2012-06-10 19:52:00
1:52 PM,75.0,36.0,24,30.06,10.0,South,13.8,-,N/A,,Clear,170,2012-06-10 20:52:00
2:52 PM,77.0,37.0,24,30.04,10.0,South,12.7,-,N/A,,Clear,180,2012-06-10 21:52:00
3:52 PM,78.1,33.1,19,30.04,10.0,SW,10.4,-,N/A,,Clear,220,2012-06-10 22:52:00
4:52 PM,79.0,36.0,21,30.04,10.0,SSW,13.8,-,N/A,,Scattered Clouds,200,2012-06-10 23:52:00
5:52 PM,75.9,37.0,24,30.03,10.0,South,16.1,24.2,N/A,,Partly Cloudy,180,2012-06-11 00:52:00
6:52 PM,75.0,37.9,26,30.04,10.0,South,16.1,-,N/A,,Clear,180,2012-06-11 01:52:00
7:52 PM,72.0,37.9,29,30.05,10.0,South,12.7,-,N/A,,Clear,180,2012-06-11 02:52:00
8:52 PM,68.0,37.9,33,30.06,10.0,SSW,12.7,-,N/A,,Clear,200,2012-06-11 03:52:00
9:52 PM,64.0,37.9,38,30.07,10.0,SSW,6.9,-,N/A,,Clear,200,2012-06-11 04:52:00
10:52 PM,61.0,39.9,46,30.08,10.0,SSW,6.9,-,N/A,,Clear,210,2012-06-11 05:52:00
11:52 PM,57.9,39.0,49,30.09,10.0,Calm,Calm,-,N/A,,Clear,0,2012-06-11 06:52:00